Weather in Zunda Tolga

Russia / Republic of Kalmykia     45°36′38″N   44°15′38″E
temp.,
°C
wind,
m/s
gust,
m/s
humid.,
%
clouds,
%
prec.,
mm/h
press.,
hPa
HPBL,
m
8 may, sat
sat800:00+14w23625 0.0 101815
03:00+12w22715 0.0 101811
06:00+15s11665 0.0 101716
09:00+20se334619 0.0 1017789
12:00+24se4537100 0.0 10151723
15:00+25se5634100 0.0 10142224
18:00+22se5945100 0.0 1013234
21:00+17se6124955 0.0 1013311
9 may, sun
sun900:00+13ese510566 0.0 1011212
03:00+11se41166100 0.0 1010255
06:00+12se3976100 0.0 1009354
09:00+16ese3369100 0.0 1008505
12:00+21wnw5549100 0.0 10081289
15:00+19nw101164100 0.1 10091202
18:00+9wnw131887100 0.9 1013732
21:00+8wnw111686100 3.9 10171085
10 may, mon
mon1000:00+9wnw91482100 0.4 10181216
03:00+7wnw101482100 0.5 1019947
06:00+8wnw9157694 0.0 10191007
09:00+12wnw10135716 0.0 10191604
12:00+15w10124197 0.0 10182525
15:00+14wnw101142100 0.0 10172223
18:00+12wnw79575 0.0 10171344
21:00+8wsw497320 0.0 1019256
11 may, tue
tue1100:00+7sw598390 0.0 1020310
03:00+6s4881100 0.0 1020184
06:00+8ssw247692 0.0 1020190
09:00+12sse235498 0.0 1020705
12:00+15ese684278 0.0 10191982
15:00+16ese674090 0.0 10201774
18:00+15ese5652100 0.0 1020732
21:00+12e34635 0.0 102048
12 may, wed
wed1200:00+10se34715 0.0 101954
03:00+9ese33785 0.0 101927
06:00+10ese24725 0.0 1019117
09:00+16ese67525 0.0 10191087
12:00+20ese56381 0.0 10181655
15:00+22e55340 0.0 10171943
18:00+21e35415 0.0 1016175
21:00+16e33461 0.0 101621